Wetterdaten Sommer 2020

Datum T max T min Regen
01.06.2020 24.6 °C 9.2 °C 0 mm
02.06.2020 25.4 °C 10.6 °C 0 mm
03.06.2020 25.6 °C 12.7 °C 1.6 mm
04.06.2020 17.8 °C 12.4 °C 7.4 mm
05.06.2020 15.1 °C 9.9 °C 6.2 mm
06.06.2020 13.7 °C 9.4 °C 1.6 mm
07.06.2020 16.5 °C 10.4 °C 0.4 mm
08.06.2020 18.3 °C 10.7 °C 0.4 mm
09.06.2020 15.7 °C 10.9 °C 0.2 mm
10.06.2020 14.3 °C 11.6 °C 0.2 mm
11.06.2020 17.2 °C 10.7 °C 0.4 mm
12.06.2020 26.1 °C 9.2 °C 0 mm
13.06.2020 24.2 °C 14 °C 0.2 mm
14.06.2020 18.1 °C 14 °C 2.6 mm
15.06.2020 18.2 °C 13.4 °C 3 mm
16.06.2020 17.6 °C 13.7 °C 2.2 mm
17.06.2020 21.2 °C 12.8 °C 15.6 mm
18.06.2020 22.1 °C 10.2 °C 0.2 mm
19.06.2020 20.6 °C 13.3 °C 6.2 mm
20.06.2020 22.9 °C 12.6 °C 1.2 mm
21.06.2020 24 °C 11.4 °C 0 mm
22.06.2020 24.1 °C 15.7 °C 0 mm
23.06.2020 24.9 °C 12.4 °C 0 mm
24.06.2020 25.9 °C 12.4 °C 0 mm
25.06.2020 24.3 °C 13.1 °C 0 mm
26.06.2020 28.3 °C 15.2 °C 0 mm
27.06.2020 27.5 °C 16.2 °C 4.8 mm
28.06.2020 23.6 °C 14.2 °C 7.2 mm
29.06.2020 22.9 °C 13.8 °C 0.4 mm
30.06.2020 23 °C 13.7 °C 0 mm
01.07.2020 28.7 °C 13.7 °C 0 mm
02.07.2020 21.9 °C 17.4 °C 0.2 mm
03.07.2020 22.9 °C 14.4 °C 0 mm
04.07.2020 25.9 °C 11.6 °C 0 mm
05.07.2020 27.2 °C 19 °C 0 mm
06.07.2020 22 °C 13.7 °C 0.6 mm
07.07.2020 21.4 °C 9.3 °C 0 mm
08.07.2020 23.6 °C 11 °C 0 mm
09.07.2020 29.3 °C 13.7 °C 0 mm
10.07.2020 27.1 °C 15.9 °C 0 mm
11.07.2020 21.6 °C 12.4 °C 5.6 mm
12.07.2020 23.4 °C 8.8 °C 0 mm
13.07.2020 24.1 °C 9.5 °C 0 mm
14.07.2020 25.3 °C 11.6 °C 0 mm
15.07.2020 20 °C 14.7 °C 5.8 mm
16.07.2020 15.8 °C 13.9 °C 2.6 mm
17.07.2020 21.9 °C 13.8 °C 2.4 mm
18.07.2020 25.2 °C 11.6 °C 0 mm
19.07.2020 26.7 °C 11.7 °C 0 mm
20.07.2020 27.5 °C 13.4 °C 0 mm
21.07.2020 25.9 °C 14.5 °C 0 mm
22.07.2020 26.8 °C 10.7 °C 0 mm
23.07.2020 26.5 °C 12 °C 0 mm
24.07.2020 26.4 °C 13.4 °C 0 mm
25.07.2020 26.6 °C 15.9 °C 0 mm
26.07.2020 25.4 °C 16.6 °C 2 mm
27.07.2020 31.4 °C 13.4 °C 0 mm
28.07.2020 28.1 °C 18.4 °C 0 mm
29.07.2020 26.6 °C 12.9 °C 0 mm
30.07.2020 29.7 °C 10.9 °C 0 mm
31.07.2020 33.5 °C 12.8 °C 0 mm
01.08.2020 31.7 °C 16.7 °C 0 mm
02.08.2020 23.3 °C 19.4 °C 0 mm
03.08.2020 19.4 °C 13.4 °C 11.4 mm
04.08.2020 19.9 °C 12.7 °C 1 mm
05.08.2020 21.8 °C 11.2 °C 0 mm
*) Messwert für diesen Zeitpunkt noch nicht verfügbar
 Hinweis zur Datenqualität
∅ Temperatur

18.2 °C

Abweichung vom Mittel

-0.5 °C

Niederschlag

93.6 mm

Abweichung vom Mittel

42 %

33.5 °C

Lufttemperatur
31.07.2020

1026 hPa

Luftdruck
12.07.2020

27.4 km/h

Windböen
05.06.2020

93.6 mm

Niederschlag
 

8.8 °C

Lufttemperatur
12.07.2020

10 °C

Bodentemperatur 5cm
19.04.2020

994 hPa

Luftdruck
04.06.2020
 Hinweis zur Datenqualität